Flag for Germany Weather past 2 weeks in Luckenwalde, Brandenburg, Germany

Now
50 °F

Overcast.


Feels Like: 48 °F
Forecast: 43 / 53 °F
Wind: 6 mph from Southwest

Location: Potsdam

Current Time: Dec 18, 2014 at 4:08:33 PM

Latest Report: Dec 18, 2014 at 3:00 PM


Visibility: 16 mi

Pressure: 29.76 "Hg

Humidity: 90%

Dew point: 47 °F

Location of LuckenwaldeLocation

Historic Weather in Luckenwalde — Graph

°F

Luckenwalde temperature yesterday

Maximum temperature yesterday: 39 °F (at 11:00 PM)
Minimum temperature yesterday: 31 °F (at 7:00 AM)
Average temperature yesterday: 36 °F

Past Weeks' High & Low Weather Summary

 TemperatureHumidityPressure
High50 °F (Dec 18, 3:00 PM)100% (Dec 7, 10:00 AM)30.39 "Hg (Dec 7, 10:00 AM)
Low28 °F (Dec 9, 5:00 AM)73% (Dec 12, 5:00 PM)29.38 "Hg (Dec 12, 6:00 PM)
Average37 °F91%29.96 "Hg
* Reported Dec 3 3:00 PM — Dec 18 3:00 PM, Luckenwalde, Weather by CustomWeather, © 2014

Note: Actual official high and low records may vary slightly from our data, if they occured in-between our weather recording intervals... More about our weather records

Advertising

Luckenwalde weather history for previous 24 hours

 ConditionsComfort  
Time TempWeatherWind HumidityBarometerVisibility
3:00 PM
Dec 18
50 °FOvercast.6 mph90%29.76 "Hg16 mi
2:00 PM49 °FOvercast.5 mph92%29.78 "Hg12 mi
1:00 PM50 °FOvercast.6 mph93%29.78 "Hg11 mi
12:00 PM48 °FLow clouds.7 mph95%29.80 "Hg9 mi
11:00 AM47 °FDrizzle. Low clouds.6 mph95%29.81 "Hg7 mi
10:00 AM46 °FOvercast.6 mph95%29.81 "Hg7 mi
9:00 AM45 °FOvercast.3 mph96%29.81 "Hg10 mi
8:00 AM44 °FOvercast.6 mph97%29.80 "Hg16 mi
7:00 AM44 °FOvercast.7 mph97%29.78 "Hg19 mi
6:00 AM44 °FOvercast.6 mph97%29.78 "Hg14 mi
5:00 AM44 °FPassing clouds.6 mph97%29.77 "Hg14 mi
4:00 AM44 °FOvercast.6 mph98%29.76 "Hg16 mi
3:00 AM44 °FOvercast.7 mph99%29.74 "Hg14 mi
2:00 AM44 °FOvercast.8 mph99%29.72 "Hg11 mi
1:00 AM43 °FOvercast.7 mph99%29.69 "Hg10 mi
12:00 AM41 °FDrizzle. Low clouds.6 mph99%29.68 "Hg6 mi
11:00 PM
Dec 17
39 °FRain. Low clouds.5 mph99%29.67 "Hg5 mi
10:00 PM38 °FDrizzle. Low clouds.5 mph98%29.66 "Hg5 mi
9:00 PM38 °FDrizzle. Low clouds.5 mph98%29.64 "Hg5 mi
8:00 PM37 °FLow clouds.6 mph97%29.63 "Hg4 mi
7:00 PM37 °FLight rain. Low clouds.6 mph97%29.64 "Hg4 mi
6:00 PM37 °FLight rain. Low clouds.5 mph97%29.64 "Hg4 mi
5:00 PM37 °FLight rain. Low clouds.6 mph96%29.65 "Hg5 mi
4:00 PM37 °FDrizzle. Low clouds.7 mph95%29.65 "Hg6 mi
Weather by CustomWeather, © 2014

See weather overviewHow to use our weather pages